Location: Newark
(33.6439°N, 114.9881°W)
Time: 01:36:44
(UTC+00:00)

Transit 2A Rocket - Pass Details

Date: 24 August 2019
Orbit: 592 x 911 km, 66.7° (Epoch: 19 September)

Event Time Altitude Azimuth Distance (km) Brightness Sun altitude
Rises 10:17:07 0° 355° (N) 2,968 8.5 -32.1°
Reaches altitude 10° 10:21:01 10° 27° (NNE) 1,993 7.9 -31.5°
Maximum altitude 10:22:38 12° 49° (NE) 1,858 7.8 -31.2°
Drops below altitude 10° 10:24:13 10° 71° (ENE) 1,953 7.9 -31.0°
Sets 10:27:55 0° 104° (ESE) 2,824 8.4 -30.4°
